This is the latest recevied weather packets stored in our database for station/object OE7AOT-2. If no packets are shown the sender has not sent any weather packets the latest 1 day(s).
| Time | Temp. | Humidity | Pressure | Rain* | Wind** | Luminosity | Snow |
|---|---|---|---|---|---|---|---|
| 1778020470 | 7.22° C | 72% | 919.8 hPa | 0 mm | 0 m/s | - | - |
| 1778020402 | 7.22° C | 72% | 919.9 hPa | 0 mm | 3.58 m/s, 225° | - | - |
| 1778020334 | 7.22° C | 72% | 919.8 hPa | 0 mm | 0 m/s | - | - |
| 1778020265 | 7.78° C | 72% | 919.8 hPa | 0 mm | 3.13 m/s, 0° | - | - |
| 1778020197 | 7.78° C | 73% | 919.8 hPa | 0 mm | 4.47 m/s, 0° | - | - |
| 1778020129 | 7.78° C | 73% | 919.8 hPa | 0 mm | 2.68 m/s, 270° | - | - |
| 1778020061 | 7.78° C | 73% | 919.8 hPa | 0 mm | 3.58 m/s, 315° | - | - |
| 1778019992 | 7.78° C | 73% | 919.8 hPa | 0 mm | 4.02 m/s, 315° | - | - |
| 1778019924 | 7.78° C | 73% | 919.8 hPa | 0 mm | 0.89 m/s, 315° | - | - |
| 1778019856 | 7.22° C | 73% | 919.9 hPa | 0 mm | 4.02 m/s, 315° | - | - |
| 1778019788 | 7.22° C | 73% | 919.8 hPa | 0 mm | 12.96 m/s, 0° | - | - |
| 1778019719 | 7.22° C | 73% | 919.8 hPa | 0 mm | 4.92 m/s, 0° | - | - |
| 1778019651 | 7.22° C | 73% | 919.8 hPa | 0 mm | 3.58 m/s, 315° | - | - |
| 1778019583 | 7.22° C | 73% | 919.8 hPa | 0 mm | 9.39 m/s, 315° | - | - |
| 1778019514 | 7.22° C | 73% | 919.8 hPa | 0 mm | 4.47 m/s, 315° | - | - |
| 1778019446 | 7.22° C | 73% | 919.8 hPa | 0 mm | 8.49 m/s, 315° | - | - |
| 1778019310 | 7.22° C | 73% | 919.8 hPa | 0 mm | 0.45 m/s, 315° | - | - |
| 1778019241 | 7.22° C | 73% | 919.8 hPa | 0 mm | 3.58 m/s, 315° | - | - |
| 1778019173 | 7.22° C | 73% | 919.8 hPa | 0 mm | 0.45 m/s, 315° | - | - |
| 1778019105 | 7.22° C | 73% | 919.8 hPa | 0 mm | 3.13 m/s, 315° | - | - |
| 1778019037 | 7.22° C | 73% | 919.8 hPa | 0 mm | 0 m/s | - | - |
| 1778018968 | 7.22° C | 72% | 919.8 hPa | 0 mm | 0.89 m/s, 315° | - | - |
| 1778018900 | 7.22° C | 72% | 919.8 hPa | 0 mm | 2.24 m/s, 270° | - | - |
| 1778018832 | 7.22° C | 72% | 919.7 hPa | 0 mm | 0 m/s | - | - |
| 1778018763 | 7.22° C | 72% | 919.7 hPa | 0 mm | 0 m/s | - | - |
* Rain latest hour (hover to see other rain measurements)
** Current wind speed in m/s (hover to see current wind gust speed)